Year,Month,Day,Hour,Minute,Value (Times are PST for temperature in C)
2014,08,15,00,00,16.20
2014,08,15,00,01,16.10
2014,08,15,00,02,16.10
2014,08,15,00,03,15.90
2014,08,15,00,04,15.80
2014,08,15,00,05,15.80
2014,08,15,00,06,15.80
2014,08,15,00,07,15.80
2014,08,15,00,08,15.80
2014,08,15,00,09,15.80
2014,08,15,00,10,15.80
2014,08,15,00,11,15.80
2014,08,15,00,12,15.80
2014,08,15,00,13,15.80
2014,08,15,00,14,15.80
2014,08,15,00,15,15.80
2014,08,15,00,16,15.80
2014,08,15,00,17,15.80
2014,08,15,00,18,15.90
2014,08,15,00,19,15.90
2014,08,15,00,20,15.90
2014,08,15,00,21,16.00
2014,08,15,00,22,16.10
2014,08,15,00,23,16.10
2014,08,15,00,24,16.10
2014,08,15,00,25,16.10
2014,08,15,00,26,16.20
2014,08,15,00,27,16.30
2014,08,15,00,28,16.40
2014,08,15,00,29,16.40
2014,08,15,00,30,16.40
2014,08,15,00,31,16.40
2014,08,15,00,32,16.40
2014,08,15,00,33,16.40
2014,08,15,00,34,16.40
2014,08,15,00,35,16.40
2014,08,15,00,36,16.50
2014,08,15,00,37,16.60
2014,08,15,00,38,16.60
2014,08,15,00,39,16.60
2014,08,15,00,40,16.60
2014,08,15,00,41,16.60
2014,08,15,00,42,16.60
2014,08,15,00,43,16.60
2014,08,15,00,44,16.70
2014,08,15,00,45,16.70
2014,08,15,00,46,16.70
2014,08,15,00,47,16.70
2014,08,15,00,48,16.70
2014,08,15,00,49,16.70
2014,08,15,00,50,16.70
2014,08,15,00,51,16.70
2014,08,15,00,52,16.70
2014,08,15,00,53,16.70
2014,08,15,00,54,16.70
2014,08,15,00,55,16.70
2014,08,15,00,56,16.70
2014,08,15,00,57,16.70
2014,08,15,00,58,16.70
2014,08,15,00,59,16.70
2014,08,15,01,00,16.70
2014,08,15,01,01,16.70
2014,08,15,01,02,16.70
2014,08,15,01,03,16.70
2014,08,15,01,04,16.70
2014,08,15,01,05,16.70
2014,08,15,01,06,16.70
2014,08,15,01,07,16.70
2014,08,15,01,08,16.70
2014,08,15,01,09,16.70
2014,08,15,01,10,16.70
2014,08,15,01,11,16.70
2014,08,15,01,12,16.70
2014,08,15,01,13,16.70
2014,08,15,01,14,16.70
2014,08,15,01,15,16.70
2014,08,15,01,16,16.70
2014,08,15,01,17,16.70
2014,08,15,01,18,16.70
2014,08,15,01,19,16.70
2014,08,15,01,20,16.70
2014,08,15,01,21,16.60
2014,08,15,01,22,16.60
2014,08,15,01,23,16.60
2014,08,15,01,24,16.50
2014,08,15,01,25,16.40
2014,08,15,01,26,16.40
2014,08,15,01,27,16.30
2014,08,15,01,28,16.20
2014,08,15,01,29,16.10
2014,08,15,01,30,16.00
2014,08,15,01,31,15.90
2014,08,15,01,32,15.80
2014,08,15,01,33,15.80
2014,08,15,01,34,15.70
2014,08,15,01,35,15.70
2014,08,15,01,36,15.70
2014,08,15,01,37,15.70
2014,08,15,01,38,15.70
2014,08,15,01,39,15.70
2014,08,15,01,40,15.70
2014,08,15,01,41,15.80
2014,08,15,01,42,15.80
2014,08,15,01,43,15.80
2014,08,15,01,44,15.80
2014,08,15,01,45,15.80
2014,08,15,01,46,15.80
2014,08,15,01,47,15.80
2014,08,15,01,48,15.80
2014,08,15,01,49,15.80
2014,08,15,01,50,15.80
2014,08,15,01,51,15.90
2014,08,15,01,52,15.90
2014,08,15,01,53,15.90
2014,08,15,01,54,15.90
2014,08,15,01,55,15.90
2014,08,15,01,56,15.90
2014,08,15,01,57,16.00
2014,08,15,01,58,16.10
2014,08,15,01,59,16.10
2014,08,15,02,00,16.10
2014,08,15,02,01,16.10
2014,08,15,02,02,16.10
2014,08,15,02,03,16.10
2014,08,15,02,04,16.20
2014,08,15,02,05,16.20
2014,08,15,02,06,16.20
2014,08,15,02,07,16.10
2014,08,15,02,08,16.10
2014,08,15,02,09,16.10
2014,08,15,02,10,16.10
2014,08,15,02,11,16.00
2014,08,15,02,12,15.90
2014,08,15,02,13,15.90
2014,08,15,02,14,15.80
2014,08,15,02,15,15.80
2014,08,15,02,16,15.80
2014,08,15,02,17,15.80
2014,08,15,02,18,15.80
2014,08,15,02,19,15.80
2014,08,15,02,20,15.80
2014,08,15,02,21,15.80
2014,08,15,02,22,15.70
2014,08,15,02,23,15.70
2014,08,15,02,24,15.70
2014,08,15,02,25,15.70
2014,08,15,02,26,15.70
2014,08,15,02,27,15.70
2014,08,15,02,28,15.60
2014,08,15,02,29,15.50
2014,08,15,02,30,15.50
2014,08,15,02,31,15.40
2014,08,15,02,32,15.30
2014,08,15,02,33,15.20
2014,08,15,02,34,15.10
2014,08,15,02,35,15.00
2014,08,15,02,36,14.80
2014,08,15,02,37,14.70
2014,08,15,02,38,14.60
2014,08,15,02,39,14.50
2014,08,15,02,40,14.50
2014,08,15,02,41,14.40
2014,08,15,02,42,14.40
2014,08,15,02,43,14.40
2014,08,15,02,44,14.40
2014,08,15,02,45,14.30
2014,08,15,02,46,14.30
2014,08,15,02,47,14.30
2014,08,15,02,48,14.30
2014,08,15,02,49,14.20
2014,08,15,02,50,14.20
2014,08,15,02,51,14.20
2014,08,15,02,52,14.20
2014,08,15,02,53,14.20
2014,08,15,02,54,14.20
2014,08,15,02,55,14.20
2014,08,15,02,56,14.20
2014,08,15,02,57,14.20
2014,08,15,02,58,14.20
2014,08,15,02,59,14.20
2014,08,15,03,00,14.20
2014,08,15,03,01,14.20
2014,08,15,03,02,14.20
2014,08,15,03,03,14.20
2014,08,15,03,04,14.30
2014,08,15,03,05,14.30
2014,08,15,03,06,14.30
2014,08,15,03,07,14.30
2014,08,15,03,08,14.30
2014,08,15,03,09,14.30
2014,08,15,03,10,14.40
2014,08,15,03,11,14.40
2014,08,15,03,12,14.50
2014,08,15,03,13,14.50
2014,08,15,03,14,14.50
2014,08,15,03,15,14.50
2014,08,15,03,16,14.50
2014,08,15,03,17,14.50
2014,08,15,03,18,14.50
2014,08,15,03,19,14.60
2014,08,15,03,20,14.60
2014,08,15,03,21,14.60
2014,08,15,03,22,14.60
2014,08,15,03,23,14.60
2014,08,15,03,24,14.60
2014,08,15,03,25,14.60
2014,08,15,03,26,14.60
2014,08,15,03,27,14.70
2014,08,15,03,28,14.70
2014,08,15,03,29,14.70
2014,08,15,03,30,14.80
2014,08,15,03,31,14.80
2014,08,15,03,32,14.80
2014,08,15,03,33,14.80
2014,08,15,03,34,14.80
2014,08,15,03,35,14.80
2014,08,15,03,36,14.80
2014,08,15,03,37,14.80
2014,08,15,03,38,14.80
2014,08,15,03,39,14.80
2014,08,15,03,40,14.80
2014,08,15,03,41,14.80
2014,08,15,03,42,14.80
2014,08,15,03,43,14.80
2014,08,15,03,44,14.80
2014,08,15,03,45,14.80
2014,08,15,03,46,14.80
2014,08,15,03,47,14.80
2014,08,15,03,48,14.80
2014,08,15,03,49,14.80
2014,08,15,03,50,14.80
2014,08,15,03,51,14.80
2014,08,15,03,52,14.80
2014,08,15,03,53,14.80
2014,08,15,03,54,14.80
2014,08,15,03,55,14.80
2014,08,15,03,56,14.80
2014,08,15,03,57,14.80
2014,08,15,03,58,14.80
2014,08,15,03,59,14.80
2014,08,15,04,00,14.80
2014,08,15,04,01,14.80
2014,08,15,04,02,14.80
2014,08,15,04,03,14.80
2014,08,15,04,04,14.80
2014,08,15,04,05,14.80
2014,08,15,04,06,14.80
2014,08,15,04,07,14.80
2014,08,15,04,08,14.70
2014,08,15,04,09,14.70
2014,08,15,04,10,14.70
2014,08,15,04,11,14.70
2014,08,15,04,12,14.70
2014,08,15,04,13,14.70
2014,08,15,04,14,14.70
2014,08,15,04,15,14.80
2014,08,15,04,16,14.80
2014,08,15,04,17,14.80
2014,08,15,04,18,14.80
2014,08,15,04,19,14.80
2014,08,15,04,20,14.80
2014,08,15,04,21,14.80
2014,08,15,04,22,14.80
2014,08,15,04,23,14.80
2014,08,15,04,24,14.80
2014,08,15,04,25,14.80
2014,08,15,04,26,14.80
2014,08,15,04,27,14.80
2014,08,15,04,28,14.80
2014,08,15,04,29,14.80
2014,08,15,04,30,14.80
2014,08,15,04,31,14.80
2014,08,15,04,32,14.80
2014,08,15,04,33,14.80
2014,08,15,04,34,14.80
2014,08,15,04,35,14.80
2014,08,15,04,36,14.80
2014,08,15,04,37,14.80
2014,08,15,04,38,14.80
2014,08,15,04,39,14.80
2014,08,15,04,40,14.80
2014,08,15,04,41,14.80
2014,08,15,04,42,14.80
2014,08,15,04,43,14.80
2014,08,15,04,44,14.80
2014,08,15,04,45,14.80
2014,08,15,04,46,14.80
2014,08,15,04,47,14.80
2014,08,15,04,48,14.80
2014,08,15,04,49,14.70
2014,08,15,04,50,14.70
2014,08,15,04,51,14.70
2014,08,15,04,52,14.70
2014,08,15,04,53,14.70
2014,08,15,04,54,14.70
2014,08,15,04,55,14.60
2014,08,15,04,56,14.60
2014,08,15,04,57,14.60
2014,08,15,04,58,14.50
2014,08,15,04,59,14.50
2014,08,15,05,00,14.50
2014,08,15,05,01,14.40
2014,08,15,05,02,14.40
2014,08,15,05,03,14.40
2014,08,15,05,04,14.40
2014,08,15,05,05,14.40
2014,08,15,05,06,14.30
2014,08,15,05,07,14.30
2014,08,15,05,08,14.20
2014,08,15,05,09,14.20
2014,08,15,05,10,14.20
2014,08,15,05,11,14.20
2014,08,15,05,12,14.20
2014,08,15,05,13,14.20
2014,08,15,05,14,14.20
2014,08,15,05,15,14.20
2014,08,15,05,16,14.20
2014,08,15,05,17,14.20
2014,08,15,05,18,14.20
2014,08,15,05,19,14.20
2014,08,15,05,20,14.20
2014,08,15,05,21,14.20
2014,08,15,05,22,14.20
2014,08,15,05,23,14.20
2014,08,15,05,24,14.20
2014,08,15,05,25,14.20
2014,08,15,05,26,14.20
2014,08,15,05,27,14.20
2014,08,15,05,28,14.20
2014,08,15,05,29,14.20
2014,08,15,05,30,14.20
2014,08,15,05,31,14.20
2014,08,15,05,32,14.20
2014,08,15,05,33,14.20
2014,08,15,05,34,14.20
2014,08,15,05,35,14.30
2014,08,15,05,36,14.30
2014,08,15,05,37,14.30
2014,08,15,05,38,14.30
2014,08,15,05,39,14.30
2014,08,15,05,40,14.30
2014,08,15,05,41,14.30
2014,08,15,05,42,14.30
2014,08,15,05,43,14.30
2014,08,15,05,44,14.30
2014,08,15,05,45,14.30
2014,08,15,05,46,14.30
2014,08,15,05,47,14.30
2014,08,15,05,48,14.30
2014,08,15,05,49,14.30
2014,08,15,05,50,14.30
2014,08,15,05,51,14.30
2014,08,15,05,52,14.30
2014,08,15,05,53,14.30
2014,08,15,05,54,14.30
2014,08,15,05,55,14.30
2014,08,15,05,56,14.30
2014,08,15,05,57,14.30
2014,08,15,05,58,14.30
2014,08,15,05,59,14.30
2014,08,15,06,00,14.30
2014,08,15,06,01,14.30
2014,08,15,06,02,14.30
2014,08,15,06,03,14.30
2014,08,15,06,04,14.30
2014,08,15,06,05,14.30
2014,08,15,06,06,14.30
2014,08,15,06,07,14.40
2014,08,15,06,08,14.40
2014,08,15,06,09,14.40
2014,08,15,06,10,14.40
2014,08,15,06,11,14.40
2014,08,15,06,12,14.40
2014,08,15,06,13,14.30
2014,08,15,06,14,14.30
2014,08,15,06,15,14.30
2014,08,15,06,16,14.20
2014,08,15,06,17,14.20
2014,08,15,06,18,14.20
2014,08,15,06,19,14.20
2014,08,15,06,20,14.30
2014,08,15,06,21,14.30
2014,08,15,06,22,14.30
2014,08,15,06,23,14.30
2014,08,15,06,24,14.30
2014,08,15,06,25,14.30
2014,08,15,06,26,14.40
2014,08,15,06,27,14.40
2014,08,15,06,28,14.40
2014,08,15,06,29,14.40
2014,08,15,06,30,14.40
2014,08,15,06,31,14.40
2014,08,15,06,32,14.40
2014,08,15,06,33,14.40
2014,08,15,06,34,14.40
2014,08,15,06,35,14.30
2014,08,15,06,36,14.30
2014,08,15,06,37,14.40
2014,08,15,06,38,14.40
2014,08,15,06,39,14.40
2014,08,15,06,40,14.40
2014,08,15,06,41,14.40
2014,08,15,06,42,14.40
2014,08,15,06,43,14.40
2014,08,15,06,44,14.40
2014,08,15,06,45,14.40
2014,08,15,06,46,14.40
2014,08,15,06,47,14.40
2014,08,15,06,48,14.40
2014,08,15,06,49,14.40
2014,08,15,06,50,14.40
2014,08,15,06,51,14.40
2014,08,15,06,52,14.40
2014,08,15,06,53,14.40
2014,08,15,06,54,14.40
2014,08,15,06,55,14.40
2014,08,15,06,56,14.40
2014,08,15,06,57,14.40
2014,08,15,06,58,14.40
2014,08,15,06,59,14.40
2014,08,15,07,00,14.40
2014,08,15,07,01,14.50
2014,08,15,07,02,14.50
2014,08,15,07,03,14.50
2014,08,15,07,04,14.50
2014,08,15,07,05,14.50
2014,08,15,07,06,14.50
2014,08,15,07,07,14.50
2014,08,15,07,08,14.50
2014,08,15,07,09,14.50
2014,08,15,07,10,14.50
2014,08,15,07,11,14.60
2014,08,15,07,12,14.60
2014,08,15,07,13,14.60
2014,08,15,07,14,14.60
2014,08,15,07,15,14.60
2014,08,15,07,16,14.60
2014,08,15,07,17,14.60
2014,08,15,07,18,14.60
2014,08,15,07,19,14.60
2014,08,15,07,20,14.60
2014,08,15,07,21,14.60
2014,08,15,07,22,14.60
2014,08,15,07,23,14.60
2014,08,15,07,24,14.70
2014,08,15,07,25,14.70
2014,08,15,07,26,14.70
2014,08,15,07,27,14.70
2014,08,15,07,28,14.70
2014,08,15,07,29,14.70
2014,08,15,07,30,14.80
2014,08,15,07,31,14.80
2014,08,15,07,32,14.80
2014,08,15,07,33,14.80
2014,08,15,07,34,14.80
2014,08,15,07,35,14.80
2014,08,15,07,36,14.80
2014,08,15,07,37,14.80
2014,08,15,07,38,14.80
2014,08,15,07,39,14.80
2014,08,15,07,40,14.80
2014,08,15,07,41,14.80
2014,08,15,07,42,14.90
2014,08,15,07,43,14.90
2014,08,15,07,44,14.90
2014,08,15,07,45,14.90
2014,08,15,07,46,14.90
2014,08,15,07,47,14.90
2014,08,15,07,48,15.00
2014,08,15,07,49,15.00
2014,08,15,07,50,15.00
2014,08,15,07,51,15.10
2014,08,15,07,52,15.10
2014,08,15,07,53,15.10
2014,08,15,07,54,15.10
2014,08,15,07,55,15.10
2014,08,15,07,56,15.20
2014,08,15,07,57,15.10
2014,08,15,07,58,15.10
2014,08,15,07,59,15.10
2014,08,15,08,00,15.10
2014,08,15,08,01,15.00
2014,08,15,08,02,15.10
2014,08,15,08,03,15.00
2014,08,15,08,04,15.00
2014,08,15,08,05,15.00
2014,08,15,08,06,15.00
2014,08,15,08,07,15.00
2014,08,15,08,08,15.00
2014,08,15,08,09,15.00
2014,08,15,08,10,15.00
2014,08,15,08,11,15.00
2014,08,15,08,12,15.00
2014,08,15,08,13,15.00
2014,08,15,08,14,15.00
2014,08,15,08,15,15.00
2014,08,15,08,16,15.00
2014,08,15,08,17,15.00
2014,08,15,08,18,15.00
2014,08,15,08,19,15.00
2014,08,15,08,20,15.00
2014,08,15,08,21,15.10
2014,08,15,08,22,15.10
2014,08,15,08,23,15.10
2014,08,15,08,24,15.10
2014,08,15,08,25,15.10
2014,08,15,08,26,15.10
2014,08,15,08,27,15.20
2014,08,15,08,28,15.20
2014,08,15,08,29,15.30
2014,08,15,08,30,15.30
2014,08,15,08,31,15.40
2014,08,15,08,32,15.40
2014,08,15,08,33,15.50
2014,08,15,08,34,15.50
2014,08,15,08,35,15.60
2014,08,15,08,36,15.60
2014,08,15,08,37,15.60
2014,08,15,08,38,15.60
2014,08,15,08,39,15.50
2014,08,15,08,40,15.50
2014,08,15,08,41,15.50
2014,08,15,08,42,15.50
2014,08,15,08,43,15.50
2014,08,15,08,44,15.50
2014,08,15,08,45,15.50
2014,08,15,08,46,15.50
2014,08,15,08,47,15.60
2014,08,15,08,48,15.60
2014,08,15,08,49,15.60
2014,08,15,08,50,15.60
2014,08,15,08,51,15.60
2014,08,15,08,52,15.60
2014,08,15,08,53,15.70
2014,08,15,08,54,15.70
2014,08,15,08,55,15.80
2014,08,15,08,56,15.80
2014,08,15,08,57,15.80
2014,08,15,08,58,15.80
2014,08,15,08,59,15.80
2014,08,15,09,00,15.80
2014,08,15,09,01,15.80
2014,08,15,09,02,15.80
2014,08,15,09,03,15.90
2014,08,15,09,04,15.90
2014,08,15,09,05,16.00
2014,08,15,09,06,16.10
2014,08,15,09,07,16.10
2014,08,15,09,08,16.10
2014,08,15,09,09,16.10
2014,08,15,09,10,16.10
2014,08,15,09,11,16.00
2014,08,15,09,12,16.10
2014,08,15,09,13,16.10
2014,08,15,09,14,16.10
2014,08,15,09,15,16.10
2014,08,15,09,16,16.10
2014,08,15,09,17,16.10
2014,08,15,09,18,16.10
2014,08,15,09,19,16.10
2014,08,15,09,20,16.20
2014,08,15,09,21,16.20
2014,08,15,09,22,16.20
2014,08,15,09,23,16.20
2014,08,15,09,24,16.30
2014,08,15,09,25,16.30
2014,08,15,09,26,16.30
2014,08,15,09,27,16.30
2014,08,15,09,28,16.30
2014,08,15,09,29,16.30
2014,08,15,09,30,16.30
2014,08,15,09,31,16.30
2014,08,15,09,32,16.30
2014,08,15,09,33,16.30
2014,08,15,09,34,16.30
2014,08,15,09,35,16.30
2014,08,15,09,36,16.30
2014,08,15,09,37,16.30
2014,08,15,09,38,16.30
2014,08,15,09,39,16.30
2014,08,15,09,40,16.30
2014,08,15,09,41,16.30
2014,08,15,09,42,16.30
2014,08,15,09,43,16.30
2014,08,15,09,44,16.30
2014,08,15,09,45,16.40
2014,08,15,09,46,16.40
2014,08,15,09,47,16.40
2014,08,15,09,48,16.50
2014,08,15,09,49,16.60
2014,08,15,09,50,16.60
2014,08,15,09,51,16.60
2014,08,15,09,52,16.60
2014,08,15,09,53,16.60
2014,08,15,09,54,16.60
2014,08,15,09,55,16.70
2014,08,15,09,56,16.70
2014,08,15,09,57,16.70
2014,08,15,09,58,16.80
2014,08,15,09,59,16.80
2014,08,15,10,00,16.80
2014,08,15,10,01,16.80
2014,08,15,10,02,16.80
2014,08,15,10,03,16.90
2014,08,15,10,04,16.90
2014,08,15,10,05,16.90
2014,08,15,10,06,17.00
2014,08,15,10,07,17.10
2014,08,15,10,08,17.10
2014,08,15,10,09,17.20
2014,08,15,10,10,17.30
2014,08,15,10,11,17.30
2014,08,15,10,12,17.40
2014,08,15,10,13,17.50
2014,08,15,10,14,17.60
2014,08,15,10,15,17.70
2014,08,15,10,16,17.80
2014,08,15,10,17,17.90
2014,08,15,10,18,18.00
2014,08,15,10,19,18.20
2014,08,15,10,20,18.30
2014,08,15,10,21,18.40
2014,08,15,10,22,18.50
2014,08,15,10,23,18.70
2014,08,15,10,24,18.80
2014,08,15,10,25,18.90
2014,08,15,10,26,19.00
2014,08,15,10,27,19.10
2014,08,15,10,28,19.30
2014,08,15,10,29,19.40
2014,08,15,10,30,19.60
2014,08,15,10,31,19.60
2014,08,15,10,32,19.70
2014,08,15,10,33,19.80
2014,08,15,10,34,19.90
2014,08,15,10,35,20.00
2014,08,15,10,36,20.10
2014,08,15,10,37,20.20
2014,08,15,10,38,20.40
2014,08,15,10,39,20.50
2014,08,15,10,40,20.70
2014,08,15,10,41,20.90
2014,08,15,10,42,21.00
2014,08,15,10,43,21.20
2014,08,15,10,44,21.30
2014,08,15,10,45,21.30
2014,08,15,10,46,21.30
2014,08,15,10,47,21.40
2014,08,15,10,48,21.50
2014,08,15,10,49,21.60
2014,08,15,10,50,21.60
2014,08,15,10,51,21.60
2014,08,15,10,52,21.60
2014,08,15,10,53,21.70
2014,08,15,10,54,21.70
2014,08,15,10,55,21.70
2014,08,15,10,56,21.80
2014,08,15,10,57,21.90
2014,08,15,10,58,21.80
2014,08,15,10,59,21.80
2014,08,15,11,00,21.80
2014,08,15,11,01,21.80
2014,08,15,11,02,21.90
2014,08,15,11,03,21.90
2014,08,15,11,04,21.90
2014,08,15,11,05,21.90
2014,08,15,11,06,21.80
2014,08,15,11,07,21.80
2014,08,15,11,08,21.70
2014,08,15,11,09,21.70
2014,08,15,11,10,21.70
2014,08,15,11,11,21.80
2014,08,15,11,12,21.80
2014,08,15,11,13,21.80
2014,08,15,11,14,21.80
2014,08,15,11,15,21.90
2014,08,15,11,16,21.90
2014,08,15,11,17,22.00
2014,08,15,11,18,22.10
2014,08,15,11,19,22.10
2014,08,15,11,20,22.20
2014,08,15,11,21,22.20
2014,08,15,11,22,22.20
2014,08,15,11,23,22.20
2014,08,15,11,24,22.20
2014,08,15,11,25,22.20
2014,08,15,11,26,22.10
2014,08,15,11,27,22.10
2014,08,15,11,28,22.00
2014,08,15,11,29,21.90
2014,08,15,11,30,21.80
2014,08,15,11,31,21.70
2014,08,15,11,32,21.60
2014,08,15,11,33,21.60
2014,08,15,11,34,21.60
2014,08,15,11,35,21.60
2014,08,15,11,36,21.60
2014,08,15,11,37,21.60
2014,08,15,11,38,21.60
2014,08,15,11,39,21.70
2014,08,15,11,40,21.80
2014,08,15,11,41,21.90
2014,08,15,11,42,22.10
2014,08,15,11,43,22.20
2014,08,15,11,44,22.30
2014,08,15,11,45,22.30
2014,08,15,11,46,22.30
2014,08,15,11,47,22.40
2014,08,15,11,48,22.40
2014,08,15,11,49,22.50
2014,08,15,11,50,22.50
2014,08,15,11,51,22.40
2014,08,15,11,52,22.30
2014,08,15,11,53,22.30
2014,08,15,11,54,22.20
2014,08,15,11,55,22.20
2014,08,15,11,56,22.20
2014,08,15,11,57,22.10
2014,08,15,11,58,22.00
2014,08,15,11,59,22.00
2014,08,15,12,00,22.00
2014,08,15,12,01,22.00
2014,08,15,12,02,22.00
2014,08,15,12,03,22.00
2014,08,15,12,04,22.00
2014,08,15,12,05,21.90
2014,08,15,12,06,21.90
2014,08,15,12,07,22.00
2014,08,15,12,08,22.00
2014,08,15,12,09,22.00
2014,08,15,12,10,22.10
2014,08,15,12,11,22.10
2014,08,15,12,12,22.20
2014,08,15,12,13,22.20
2014,08,15,12,14,22.20
2014,08,15,12,15,22.20
2014,08,15,12,16,22.10
2014,08,15,12,17,22.00
2014,08,15,12,18,21.90
2014,08,15,12,19,21.80
2014,08,15,12,20,21.60
2014,08,15,12,21,21.60
2014,08,15,12,22,21.60
2014,08,15,12,23,21.50
2014,08,15,12,24,21.40
2014,08,15,12,25,21.40
2014,08,15,12,26,21.40
2014,08,15,12,27,21.50
2014,08,15,12,28,21.60
2014,08,15,12,29,21.60
2014,08,15,12,30,21.60
2014,08,15,12,31,21.70
2014,08,15,12,32,21.80
2014,08,15,12,33,21.80
2014,08,15,12,34,22.00
2014,08,15,12,35,22.00
2014,08,15,12,36,22.10
2014,08,15,12,37,22.20
2014,08,15,12,38,22.20
2014,08,15,12,39,22.20
2014,08,15,12,40,22.10
2014,08,15,12,41,22.10
2014,08,15,12,42,22.10
2014,08,15,12,43,22.10
2014,08,15,12,44,22.00
2014,08,15,12,45,22.00
2014,08,15,12,46,22.00
2014,08,15,12,47,22.00
2014,08,15,12,48,22.00
2014,08,15,12,49,22.00
2014,08,15,12,50,22.10
2014,08,15,12,51,22.10
2014,08,15,12,52,22.10
2014,08,15,12,53,22.10
2014,08,15,12,54,22.10
2014,08,15,12,55,22.10
2014,08,15,12,56,22.10
2014,08,15,12,57,22.10
2014,08,15,12,58,22.00
2014,08,15,12,59,22.00
2014,08,15,13,00,22.00
2014,08,15,13,01,22.10
2014,08,15,13,02,22.10
2014,08,15,13,03,22.30
2014,08,15,13,04,22.50
2014,08,15,13,05,22.70
2014,08,15,13,06,22.80
2014,08,15,13,07,22.80
2014,08,15,13,08,22.80
2014,08,15,13,09,22.80
2014,08,15,13,10,22.80
2014,08,15,13,11,22.80
2014,08,15,13,12,22.80
2014,08,15,13,13,22.70
2014,08,15,13,14,22.60
2014,08,15,13,15,22.60
2014,08,15,13,16,22.60
2014,08,15,13,17,22.60
2014,08,15,13,18,22.60
2014,08,15,13,19,22.50
2014,08,15,13,20,22.50
2014,08,15,13,21,22.40
2014,08,15,13,22,22.30
2014,08,15,13,23,22.20
2014,08,15,13,24,22.20
2014,08,15,13,25,22.10
2014,08,15,13,26,22.10
2014,08,15,13,27,22.00
2014,08,15,13,28,21.80
2014,08,15,13,29,21.70
2014,08,15,13,30,21.70
2014,08,15,13,31,21.70
2014,08,15,13,32,21.70
2014,08,15,13,33,21.70
2014,08,15,13,34,21.70
2014,08,15,13,35,21.60
2014,08,15,13,36,21.60
2014,08,15,13,37,21.60
2014,08,15,13,38,21.50
2014,08,15,13,39,21.40
2014,08,15,13,40,21.40
2014,08,15,13,41,21.30
2014,08,15,13,42,21.30
2014,08,15,13,43,21.30
2014,08,15,13,44,21.30
2014,08,15,13,45,21.30
2014,08,15,13,46,21.30
2014,08,15,13,47,21.30
2014,08,15,13,48,21.30
2014,08,15,13,49,21.30
2014,08,15,13,50,21.30
2014,08,15,13,51,21.30
2014,08,15,13,52,21.40
2014,08,15,13,53,21.40
2014,08,15,13,54,21.40
2014,08,15,13,55,21.40
2014,08,15,13,56,21.40
2014,08,15,13,57,21.40
2014,08,15,13,58,21.40
2014,08,15,13,59,21.40
2014,08,15,14,00,21.50
2014,08,15,14,01,21.60
2014,08,15,14,02,21.60
2014,08,15,14,03,21.60
2014,08,15,14,04,21.60
2014,08,15,14,05,21.60
2014,08,15,14,06,21.60
2014,08,15,14,07,21.50
2014,08,15,14,08,21.40
2014,08,15,14,09,21.40
2014,08,15,14,10,21.40
2014,08,15,14,11,21.40
2014,08,15,14,12,21.30
2014,08,15,14,13,21.30
2014,08,15,14,14,21.40
2014,08,15,14,15,21.40
2014,08,15,14,16,21.30
2014,08,15,14,17,21.30
2014,08,15,14,18,21.30
2014,08,15,14,19,21.30
2014,08,15,14,20,21.30
2014,08,15,14,21,21.30
2014,08,15,14,22,21.30
2014,08,15,14,23,21.30
2014,08,15,14,24,21.30
2014,08,15,14,25,21.40
2014,08,15,14,26,21.40
2014,08,15,14,27,21.60
2014,08,15,14,28,21.60
2014,08,15,14,29,21.60
2014,08,15,14,30,21.70
2014,08,15,14,31,21.70
2014,08,15,14,32,21.80
2014,08,15,14,33,21.80
2014,08,15,14,34,21.90
2014,08,15,14,35,22.00
2014,08,15,14,36,22.00
2014,08,15,14,37,22.10
2014,08,15,14,38,22.00
2014,08,15,14,39,22.00
2014,08,15,14,40,22.00
2014,08,15,14,41,22.00
2014,08,15,14,42,21.90
2014,08,15,14,43,21.90
2014,08,15,14,44,21.90
2014,08,15,14,45,21.80
2014,08,15,14,46,21.70
2014,08,15,14,47,21.80
2014,08,15,14,48,21.80
2014,08,15,14,49,21.90
2014,08,15,14,50,21.90
2014,08,15,14,51,21.90
2014,08,15,14,52,22.00
2014,08,15,14,53,22.10
2014,08,15,14,54,22.10
2014,08,15,14,55,22.10
2014,08,15,14,56,22.10
2014,08,15,14,57,22.10
2014,08,15,14,58,22.10
2014,08,15,14,59,22.20
2014,08,15,15,00,22.20
2014,08,15,15,01,22.20
2014,08,15,15,02,22.20
2014,08,15,15,03,22.20
2014,08,15,15,04,22.30
2014,08,15,15,05,22.30
2014,08,15,15,06,22.30
2014,08,15,15,07,22.30
2014,08,15,15,08,22.20
2014,08,15,15,09,22.10
2014,08,15,15,10,22.10
2014,08,15,15,11,22.20
2014,08,15,15,12,22.20
2014,08,15,15,13,22.20
2014,08,15,15,14,22.20
2014,08,15,15,15,22.20
2014,08,15,15,16,22.20
2014,08,15,15,17,22.20
2014,08,15,15,18,22.10
2014,08,15,15,19,22.00
2014,08,15,15,20,22.00
2014,08,15,15,21,21.90
2014,08,15,15,22,21.90
2014,08,15,15,23,21.80
2014,08,15,15,24,21.80
2014,08,15,15,25,21.70
2014,08,15,15,26,21.60
2014,08,15,15,27,21.60
2014,08,15,15,28,21.60
2014,08,15,15,29,21.60
2014,08,15,15,30,21.60
2014,08,15,15,31,21.60
2014,08,15,15,32,21.60
2014,08,15,15,33,21.60
2014,08,15,15,34,21.60
2014,08,15,15,35,21.60
2014,08,15,15,36,21.60
2014,08,15,15,37,21.60
2014,08,15,15,38,21.60
2014,08,15,15,39,21.60
2014,08,15,15,40,21.60
2014,08,15,15,41,21.60
2014,08,15,15,42,21.60
2014,08,15,15,43,21.70
2014,08,15,15,44,21.70
2014,08,15,15,45,21.70
2014,08,15,15,46,21.70
2014,08,15,15,47,21.70
2014,08,15,15,48,21.70
2014,08,15,15,49,21.70
2014,08,15,15,50,21.70
2014,08,15,15,51,21.70
2014,08,15,15,52,21.70
2014,08,15,15,53,21.70
2014,08,15,15,54,21.70
2014,08,15,15,55,21.80
2014,08,15,15,56,21.70
2014,08,15,15,57,21.70
2014,08,15,15,58,21.60
2014,08,15,15,59,21.60
2014,08,15,16,00,21.60
2014,08,15,16,01,21.60
2014,08,15,16,02,21.50
2014,08,15,16,03,21.40
2014,08,15,16,04,21.40
2014,08,15,16,05,21.30
2014,08,15,16,06,21.30
2014,08,15,16,07,21.30
2014,08,15,16,08,21.20
2014,08,15,16,09,21.20
2014,08,15,16,10,21.20
2014,08,15,16,11,21.10
2014,08,15,16,12,21.10
2014,08,15,16,13,21.10
2014,08,15,16,14,21.00
2014,08,15,16,15,21.00
2014,08,15,16,16,21.00
2014,08,15,16,17,20.90
2014,08,15,16,18,20.90
2014,08,15,16,19,20.90
2014,08,15,16,20,20.90
2014,08,15,16,21,20.90
2014,08,15,16,22,21.00
2014,08,15,16,23,21.00
2014,08,15,16,24,20.90
2014,08,15,16,25,20.90
2014,08,15,16,26,21.00
2014,08,15,16,27,21.00
2014,08,15,16,28,21.00
2014,08,15,16,29,21.00
2014,08,15,16,30,21.00
2014,08,15,16,31,21.00
2014,08,15,16,32,21.00
2014,08,15,16,33,21.00
2014,08,15,16,34,21.00
2014,08,15,16,35,21.00
2014,08,15,16,36,21.00
2014,08,15,16,37,21.00
2014,08,15,16,38,21.00
2014,08,15,16,39,21.00
2014,08,15,16,40,21.00
2014,08,15,16,41,21.00
2014,08,15,16,42,21.00
2014,08,15,16,43,20.90
2014,08,15,16,44,20.90
2014,08,15,16,45,20.90
2014,08,15,16,46,20.80
2014,08,15,16,47,20.80
2014,08,15,16,48,20.70
2014,08,15,16,49,20.70
2014,08,15,16,50,20.60
2014,08,15,16,51,20.60
2014,08,15,16,52,20.50
2014,08,15,16,53,20.50
2014,08,15,16,54,20.50
2014,08,15,16,55,20.40
2014,08,15,16,56,20.40
2014,08,15,16,57,20.50
2014,08,15,16,58,20.50
2014,08,15,16,59,20.50
2014,08,15,17,00,20.50
2014,08,15,17,01,20.50
2014,08,15,17,02,20.50
2014,08,15,17,03,20.50
2014,08,15,17,04,20.50
2014,08,15,17,05,20.60
2014,08,15,17,06,20.60
2014,08,15,17,07,20.60
2014,08,15,17,08,20.60
2014,08,15,17,09,20.60
2014,08,15,17,10,20.60
2014,08,15,17,11,20.70
2014,08,15,17,12,20.70
2014,08,15,17,13,20.70
2014,08,15,17,14,20.70
2014,08,15,17,15,20.70
2014,08,15,17,16,20.60
2014,08,15,17,17,20.60
2014,08,15,17,18,20.60
2014,08,15,17,19,20.60